#datetime,building,power
2021-10-14T00:00:00,campus,36.20
2021-10-14T00:01:00,campus,36.20
2021-10-14T00:02:00,campus,36.10
2021-10-14T00:03:00,campus,36.10
2021-10-14T00:04:00,campus,36.00
2021-10-14T00:05:00,campus,35.90
2021-10-14T00:06:00,campus,35.80
2021-10-14T00:07:00,campus,35.80
2021-10-14T00:08:00,campus,35.70
2021-10-14T00:09:00,campus,35.60
2021-10-14T00:10:00,campus,35.60
2021-10-14T00:11:00,campus,35.60
2021-10-14T00:12:00,campus,35.50
2021-10-14T00:13:00,campus,35.50
2021-10-14T00:14:00,campus,35.50
2021-10-14T00:15:00,campus,35.50
2021-10-14T00:16:00,campus,35.40
2021-10-14T00:17:00,campus,35.40
2021-10-14T00:18:00,campus,35.50
2021-10-14T00:19:00,campus,35.50
2021-10-14T00:20:00,campus,35.50
2021-10-14T00:21:00,campus,35.50
2021-10-14T00:22:00,campus,35.40
2021-10-14T00:23:00,campus,35.50
2021-10-14T00:24:00,campus,35.40
2021-10-14T00:25:00,campus,35.40
2021-10-14T00:26:00,campus,35.40
2021-10-14T00:27:00,campus,35.30
2021-10-14T00:28:00,campus,35.30
2021-10-14T00:29:00,campus,35.30
2021-10-14T00:30:00,campus,35.20
2021-10-14T00:31:00,campus,35.10
2021-10-14T00:32:00,campus,35.00
2021-10-14T00:33:00,campus,35.00
2021-10-14T00:34:00,campus,34.90
2021-10-14T00:35:00,campus,34.90
2021-10-14T00:36:00,campus,34.90
2021-10-14T00:37:00,campus,34.80
2021-10-14T00:38:00,campus,34.70
2021-10-14T00:39:00,campus,34.70
2021-10-14T00:40:00,campus,34.70
2021-10-14T00:41:00,campus,34.60
2021-10-14T00:42:00,campus,34.50
2021-10-14T00:43:00,campus,34.40
2021-10-14T00:44:00,campus,34.30
2021-10-14T00:45:00,campus,34.30
2021-10-14T00:46:00,campus,34.30
2021-10-14T00:47:00,campus,34.30
2021-10-14T00:48:00,campus,34.20
2021-10-14T00:49:00,campus,34.20
2021-10-14T00:50:00,campus,34.20
2021-10-14T00:51:00,campus,34.10
2021-10-14T00:52:00,campus,34.10
2021-10-14T00:53:00,campus,34.00
2021-10-14T00:54:00,campus,34.00
2021-10-14T00:55:00,campus,33.90
2021-10-14T00:56:00,campus,33.90
2021-10-14T00:57:00,campus,33.90
2021-10-14T00:58:00,campus,33.90
2021-10-14T00:59:00,campus,33.80
2021-10-14T01:00:00,campus,33.80
2021-10-14T01:01:00,campus,33.90
2021-10-14T01:02:00,campus,33.90
2021-10-14T01:03:00,campus,33.90
2021-10-14T01:04:00,campus,33.80
2021-10-14T01:05:00,campus,33.80
2021-10-14T01:06:00,campus,33.70
2021-10-14T01:07:00,campus,33.60
2021-10-14T01:08:00,campus,33.60
2021-10-14T01:09:00,campus,33.50
2021-10-14T01:10:00,campus,33.40
2021-10-14T01:11:00,campus,33.30
2021-10-14T01:12:00,campus,33.20
2021-10-14T01:13:00,campus,33.10
2021-10-14T01:14:00,campus,33.10
2021-10-14T01:15:00,campus,33.00
2021-10-14T01:16:00,campus,32.90
2021-10-14T01:17:00,campus,32.80
2021-10-14T01:18:00,campus,32.70
2021-10-14T01:19:00,campus,32.60
2021-10-14T01:20:00,campus,32.50
2021-10-14T01:21:00,campus,32.40
2021-10-14T01:22:00,campus,32.30
2021-10-14T01:23:00,campus,32.20
2021-10-14T01:24:00,campus,32.20
2021-10-14T01:25:00,campus,32.10
2021-10-14T01:26:00,campus,32.00
2021-10-14T01:27:00,campus,31.90
2021-10-14T01:28:00,campus,31.80
2021-10-14T01:29:00,campus,31.70
2021-10-14T01:30:00,campus,31.70
2021-10-14T01:31:00,campus,31.50
2021-10-14T01:32:00,campus,31.40
2021-10-14T01:33:00,campus,31.30
2021-10-14T01:34:00,campus,31.30
2021-10-14T01:35:00,campus,31.20
2021-10-14T01:36:00,campus,31.20
2021-10-14T01:37:00,campus,31.10
2021-10-14T01:38:00,campus,31.00
2021-10-14T01:39:00,campus,31.00
2021-10-14T01:40:00,campus,30.90
2021-10-14T01:41:00,campus,30.80
2021-10-14T01:42:00,campus,30.70
2021-10-14T01:43:00,campus,30.70
2021-10-14T01:44:00,campus,30.60
2021-10-14T01:45:00,campus,30.50
2021-10-14T01:46:00,campus,30.40
2021-10-14T01:47:00,campus,30.30
2021-10-14T01:48:00,campus,30.20
2021-10-14T01:49:00,campus,30.20
2021-10-14T01:50:00,campus,30.10
2021-10-14T01:51:00,campus,30.00
2021-10-14T01:52:00,campus,30.00
2021-10-14T01:53:00,campus,29.90
2021-10-14T01:54:00,campus,29.80
2021-10-14T01:55:00,campus,29.80
2021-10-14T01:56:00,campus,29.70
2021-10-14T01:57:00,campus,29.70
2021-10-14T01:58:00,campus,29.70
2021-10-14T01:59:00,campus,29.70
2021-10-14T02:00:00,campus,29.70
2021-10-14T02:01:00,campus,29.70
2021-10-14T02:02:00,campus,29.80
2021-10-14T02:03:00,campus,29.80
2021-10-14T02:04:00,campus,29.80
2021-10-14T02:05:00,campus,29.80
2021-10-14T02:06:00,campus,29.90
2021-10-14T02:07:00,campus,30.00
2021-10-14T02:08:00,campus,30.00
2021-10-14T02:09:00,campus,30.00
2021-10-14T02:10:00,campus,30.10
2021-10-14T02:11:00,campus,30.20
2021-10-14T02:12:00,campus,30.30
2021-10-14T02:13:00,campus,30.40
2021-10-14T02:14:00,campus,30.50
2021-10-14T02:15:00,campus,30.50
2021-10-14T02:16:00,campus,30.60
2021-10-14T02:17:00,campus,30.60
2021-10-14T02:18:00,campus,30.60
2021-10-14T02:19:00,campus,30.60
2021-10-14T02:20:00,campus,30.60
2021-10-14T02:21:00,campus,30.60
2021-10-14T02:22:00,campus,30.70
2021-10-14T02:23:00,campus,30.70
2021-10-14T02:24:00,campus,30.70
2021-10-14T02:25:00,campus,30.70
2021-10-14T02:26:00,campus,30.70
2021-10-14T02:27:00,campus,30.70
2021-10-14T02:28:00,campus,30.60
2021-10-14T02:29:00,campus,30.60
2021-10-14T02:30:00,campus,30.50
2021-10-14T02:31:00,campus,30.50
2021-10-14T02:32:00,campus,30.50
2021-10-14T02:33:00,campus,30.50
2021-10-14T02:34:00,campus,30.40
2021-10-14T02:35:00,campus,30.30
2021-10-14T02:36:00,campus,30.30
2021-10-14T02:37:00,campus,30.30
2021-10-14T02:38:00,campus,30.30
2021-10-14T02:39:00,campus,30.30
2021-10-14T02:40:00,campus,30.30
2021-10-14T02:41:00,campus,30.20
2021-10-14T02:42:00,campus,30.20
2021-10-14T02:43:00,campus,30.20
2021-10-14T02:44:00,campus,30.20
2021-10-14T02:45:00,campus,30.20
2021-10-14T02:46:00,campus,30.20
2021-10-14T02:47:00,campus,30.20
2021-10-14T02:48:00,campus,30.20
2021-10-14T02:49:00,campus,30.30
2021-10-14T02:50:00,campus,30.30
2021-10-14T02:51:00,campus,30.30
2021-10-14T02:52:00,campus,30.30
2021-10-14T02:53:00,campus,30.40
2021-10-14T02:54:00,campus,30.40
2021-10-14T02:55:00,campus,30.40
2021-10-14T02:56:00,campus,30.40
2021-10-14T02:57:00,campus,30.40
2021-10-14T02:58:00,campus,30.40
2021-10-14T02:59:00,campus,30.50
2021-10-14T03:00:00,campus,30.50
2021-10-14T03:01:00,campus,30.50
2021-10-14T03:02:00,campus,30.40
2021-10-14T03:03:00,campus,30.40
2021-10-14T03:04:00,campus,30.50
2021-10-14T03:05:00,campus,30.50
2021-10-14T03:06:00,campus,30.60
2021-10-14T03:07:00,campus,30.50
2021-10-14T03:08:00,campus,30.50
2021-10-14T03:09:00,campus,30.50
2021-10-14T03:10:00,campus,30.50
2021-10-14T03:11:00,campus,30.50
2021-10-14T03:12:00,campus,30.50
2021-10-14T03:13:00,campus,30.40
2021-10-14T03:14:00,campus,30.40
2021-10-14T03:15:00,campus,30.40
2021-10-14T03:16:00,campus,30.40
2021-10-14T03:17:00,campus,30.50
2021-10-14T03:18:00,campus,30.50
2021-10-14T03:19:00,campus,30.60
2021-10-14T03:20:00,campus,30.60
2021-10-14T03:21:00,campus,30.70
2021-10-14T03:22:00,campus,30.70
2021-10-14T03:23:00,campus,30.80
2021-10-14T03:24:00,campus,30.90
2021-10-14T03:25:00,campus,30.90
2021-10-14T03:26:00,campus,30.90
2021-10-14T03:27:00,campus,30.80
2021-10-14T03:28:00,campus,30.80
2021-10-14T03:29:00,campus,30.80
2021-10-14T03:30:00,campus,30.80
2021-10-14T03:31:00,campus,30.80
2021-10-14T03:32:00,campus,30.80
2021-10-14T03:33:00,campus,30.70
2021-10-14T03:34:00,campus,30.70
2021-10-14T03:35:00,campus,30.60
2021-10-14T03:36:00,campus,30.60
2021-10-14T03:37:00,campus,30.60
2021-10-14T03:38:00,campus,30.60
2021-10-14T03:39:00,campus,30.60
2021-10-14T03:40:00,campus,30.60
2021-10-14T03:41:00,campus,30.60
2021-10-14T03:42:00,campus,30.50
2021-10-14T03:43:00,campus,30.50
2021-10-14T03:44:00,campus,30.50
2021-10-14T03:45:00,campus,30.40
2021-10-14T03:46:00,campus,30.40
2021-10-14T03:47:00,campus,30.40
2021-10-14T03:48:00,campus,30.30
2021-10-14T03:49:00,campus,30.30
2021-10-14T03:50:00,campus,30.30
2021-10-14T03:51:00,campus,30.30
2021-10-14T03:52:00,campus,30.30
2021-10-14T03:53:00,campus,30.30
2021-10-14T03:54:00,campus,30.20
2021-10-14T03:55:00,campus,30.30
2021-10-14T03:56:00,campus,30.30
2021-10-14T03:57:00,campus,30.40
2021-10-14T03:58:00,campus,30.50
2021-10-14T03:59:00,campus,30.50
2021-10-14T04:00:00,campus,30.60
2021-10-14T04:01:00,campus,30.60
2021-10-14T04:02:00,campus,30.60
2021-10-14T04:03:00,campus,30.70
2021-10-14T04:04:00,campus,30.80
2021-10-14T04:05:00,campus,30.80
2021-10-14T04:06:00,campus,30.90
2021-10-14T04:07:00,campus,30.90
2021-10-14T04:08:00,campus,31.00
2021-10-14T04:09:00,campus,31.10
2021-10-14T04:10:00,campus,31.10
2021-10-14T04:11:00,campus,31.20
2021-10-14T04:12:00,campus,31.20
2021-10-14T04:13:00,campus,31.30
2021-10-14T04:14:00,campus,31.40
2021-10-14T04:15:00,campus,31.40
2021-10-14T04:16:00,campus,31.50
2021-10-14T04:17:00,campus,31.60
2021-10-14T04:18:00,campus,31.60
2021-10-14T04:19:00,campus,31.70
2021-10-14T04:20:00,campus,31.70
2021-10-14T04:21:00,campus,31.70
2021-10-14T04:22:00,campus,31.70
2021-10-14T04:23:00,campus,31.70
2021-10-14T04:24:00,campus,31.80
2021-10-14T04:25:00,campus,31.80
2021-10-14T04:26:00,campus,31.80
2021-10-14T04:27:00,campus,31.80
2021-10-14T04:28:00,campus,31.80
2021-10-14T04:29:00,campus,31.80
2021-10-14T04:30:00,campus,31.90
2021-10-14T04:31:00,campus,32.00
2021-10-14T04:32:00,campus,32.00
2021-10-14T04:33:00,campus,32.10
2021-10-14T04:34:00,campus,32.10
2021-10-14T04:35:00,campus,32.20
2021-10-14T04:36:00,campus,32.20
2021-10-14T04:37:00,campus,32.30
2021-10-14T04:38:00,campus,32.40
2021-10-14T04:39:00,campus,32.40
2021-10-14T04:40:00,campus,32.40
2021-10-14T04:41:00,campus,32.50
2021-10-14T04:42:00,campus,32.50
2021-10-14T04:43:00,campus,32.60
2021-10-14T04:44:00,campus,32.60
2021-10-14T04:45:00,campus,32.60
2021-10-14T04:46:00,campus,32.70
2021-10-14T04:47:00,campus,32.70
2021-10-14T04:48:00,campus,32.70
2021-10-14T04:49:00,campus,32.70
2021-10-14T04:50:00,campus,32.80
2021-10-14T04:51:00,campus,32.80
2021-10-14T04:52:00,campus,32.80
2021-10-14T04:53:00,campus,32.80
2021-10-14T04:54:00,campus,32.80
2021-10-14T04:55:00,campus,32.80
2021-10-14T04:56:00,campus,32.90
2021-10-14T04:57:00,campus,32.80
2021-10-14T04:58:00,campus,32.80
2021-10-14T04:59:00,campus,32.70
2021-10-14T05:00:00,campus,32.60
2021-10-14T05:01:00,campus,32.50
2021-10-14T05:02:00,campus,32.40
2021-10-14T05:03:00,campus,32.40
2021-10-14T05:04:00,campus,32.40
2021-10-14T05:05:00,campus,32.30
2021-10-14T05:06:00,campus,32.30
2021-10-14T05:07:00,campus,32.30
2021-10-14T05:08:00,campus,32.30
2021-10-14T05:09:00,campus,32.30
2021-10-14T05:10:00,campus,32.30
2021-10-14T05:11:00,campus,32.40
2021-10-14T05:12:00,campus,32.40
2021-10-14T05:13:00,campus,32.50
2021-10-14T05:14:00,campus,32.60
2021-10-14T05:15:00,campus,32.60
2021-10-14T05:16:00,campus,32.70
2021-10-14T05:17:00,campus,32.80
2021-10-14T05:18:00,campus,32.90
2021-10-14T05:19:00,campus,33.00
2021-10-14T05:20:00,campus,33.10
2021-10-14T05:21:00,campus,33.30
2021-10-14T05:22:00,campus,33.40
2021-10-14T05:23:00,campus,33.50
2021-10-14T05:24:00,campus,33.60
2021-10-14T05:25:00,campus,33.70
2021-10-14T05:26:00,campus,33.80
2021-10-14T05:27:00,campus,33.90
2021-10-14T05:28:00,campus,34.10
2021-10-14T05:29:00,campus,34.20
2021-10-14T05:30:00,campus,34.30
2021-10-14T05:31:00,campus,34.40
2021-10-14T05:32:00,campus,34.60
2021-10-14T05:33:00,campus,34.70
2021-10-14T05:34:00,campus,34.70
2021-10-14T05:35:00,campus,34.80
2021-10-14T05:36:00,campus,34.80
2021-10-14T05:37:00,campus,34.80
2021-10-14T05:38:00,campus,34.90
2021-10-14T05:39:00,campus,34.90
2021-10-14T05:40:00,campus,34.90
2021-10-14T05:41:00,campus,34.80
2021-10-14T05:42:00,campus,34.80
2021-10-14T05:43:00,campus,34.70
2021-10-14T05:44:00,campus,34.70
2021-10-14T05:45:00,campus,34.70
2021-10-14T05:46:00,campus,34.80
2021-10-14T05:47:00,campus,34.70
2021-10-14T05:48:00,campus,34.80
2021-10-14T05:49:00,campus,34.80
2021-10-14T05:50:00,campus,34.80
2021-10-14T05:51:00,campus,34.80
2021-10-14T05:52:00,campus,34.90
2021-10-14T05:53:00,campus,35.00
2021-10-14T05:54:00,campus,35.00
2021-10-14T05:55:00,campus,35.00
2021-10-14T05:56:00,campus,35.10
2021-10-14T05:57:00,campus,35.20
2021-10-14T05:58:00,campus,35.30
2021-10-14T05:59:00,campus,35.40
2021-10-14T06:00:00,campus,35.60
2021-10-14T06:01:00,campus,35.70
2021-10-14T06:02:00,campus,35.90
2021-10-14T06:03:00,campus,36.00
2021-10-14T06:04:00,campus,36.20
2021-10-14T06:05:00,campus,36.30
2021-10-14T06:06:00,campus,36.50
2021-10-14T06:07:00,campus,36.60
2021-10-14T06:08:00,campus,36.70
2021-10-14T06:09:00,campus,36.90
2021-10-14T06:10:00,campus,37.00
2021-10-14T06:11:00,campus,37.10
2021-10-14T06:12:00,campus,37.20
2021-10-14T06:13:00,campus,37.30
2021-10-14T06:14:00,campus,37.40
2021-10-14T06:15:00,campus,37.50
2021-10-14T06:16:00,campus,37.60
2021-10-14T06:17:00,campus,37.70
2021-10-14T06:18:00,campus,37.80
2021-10-14T06:19:00,campus,37.80
2021-10-14T06:20:00,campus,37.80
2021-10-14T06:21:00,campus,37.90
2021-10-14T06:22:00,campus,37.90
2021-10-14T06:23:00,campus,37.80
2021-10-14T06:24:00,campus,37.90
2021-10-14T06:25:00,campus,37.90
2021-10-14T06:26:00,campus,37.80
2021-10-14T06:27:00,campus,37.80
2021-10-14T06:28:00,campus,37.70
2021-10-14T06:29:00,campus,37.70
2021-10-14T06:30:00,campus,37.60
2021-10-14T06:31:00,campus,37.60
2021-10-14T06:32:00,campus,37.60
2021-10-14T06:33:00,campus,37.50
2021-10-14T06:34:00,campus,37.50
2021-10-14T06:35:00,campus,37.60
2021-10-14T06:36:00,campus,37.60
2021-10-14T06:37:00,campus,37.70
2021-10-14T06:38:00,campus,37.70
2021-10-14T06:39:00,campus,37.80
2021-10-14T06:40:00,campus,37.90
2021-10-14T06:41:00,campus,38.00
2021-10-14T06:42:00,campus,38.10
2021-10-14T06:43:00,campus,38.20
2021-10-14T06:44:00,campus,38.30
2021-10-14T06:45:00,campus,38.40
2021-10-14T06:46:00,campus,38.50
2021-10-14T06:47:00,campus,38.60
2021-10-14T06:48:00,campus,38.70
2021-10-14T06:49:00,campus,38.90
2021-10-14T06:50:00,campus,39.00
2021-10-14T06:51:00,campus,39.10
2021-10-14T06:52:00,campus,39.10
2021-10-14T06:53:00,campus,39.30
2021-10-14T06:54:00,campus,39.40
2021-10-14T06:55:00,campus,39.50
2021-10-14T06:56:00,campus,39.60
2021-10-14T06:57:00,campus,39.70
2021-10-14T06:58:00,campus,39.80
2021-10-14T06:59:00,campus,39.90
2021-10-14T07:00:00,campus,40.00
2021-10-14T07:01:00,campus,40.00
2021-10-14T07:02:00,campus,40.10
2021-10-14T07:03:00,campus,40.20
2021-10-14T07:04:00,campus,40.20
2021-10-14T07:05:00,campus,40.30
2021-10-14T07:06:00,campus,40.40
2021-10-14T07:07:00,campus,40.50
2021-10-14T07:08:00,campus,40.70
2021-10-14T07:09:00,campus,40.80
2021-10-14T07:10:00,campus,40.80
2021-10-14T07:11:00,campus,40.80
2021-10-14T07:12:00,campus,40.80
2021-10-14T07:13:00,campus,40.90
2021-10-14T07:14:00,campus,40.90
2021-10-14T07:15:00,campus,40.80
2021-10-14T07:16:00,campus,40.80
2021-10-14T07:17:00,campus,40.80
2021-10-14T07:18:00,campus,40.80
2021-10-14T07:19:00,campus,40.80
2021-10-14T07:20:00,campus,40.80
2021-10-14T07:21:00,campus,40.80
2021-10-14T07:22:00,campus,40.80
2021-10-14T07:23:00,campus,40.80
2021-10-14T07:24:00,campus,40.80
2021-10-14T07:25:00,campus,40.90
2021-10-14T07:26:00,campus,40.90
2021-10-14T07:27:00,campus,41.10
2021-10-14T07:28:00,campus,41.20
2021-10-14T07:29:00,campus,41.30
2021-10-14T07:30:00,campus,41.40
2021-10-14T07:31:00,campus,41.50
2021-10-14T07:32:00,campus,41.60
2021-10-14T07:33:00,campus,41.60
2021-10-14T07:34:00,campus,41.70
2021-10-14T07:35:00,campus,41.60
2021-10-14T07:36:00,campus,41.60
2021-10-14T07:37:00,campus,41.60
2021-10-14T07:38:00,campus,41.60
2021-10-14T07:39:00,campus,41.60
2021-10-14T07:40:00,campus,41.60
2021-10-14T07:41:00,campus,41.70
2021-10-14T07:42:00,campus,41.70
2021-10-14T07:43:00,campus,41.80
2021-10-14T07:44:00,campus,41.80
2021-10-14T07:45:00,campus,41.90
2021-10-14T07:46:00,campus,42.00
2021-10-14T07:47:00,campus,42.00
2021-10-14T07:48:00,campus,42.20
2021-10-14T07:49:00,campus,42.30
2021-10-14T07:50:00,campus,42.40
2021-10-14T07:51:00,campus,42.50
2021-10-14T07:52:00,campus,42.60
2021-10-14T07:53:00,campus,42.60
2021-10-14T07:54:00,campus,42.70
2021-10-14T07:55:00,campus,42.80
2021-10-14T07:56:00,campus,42.80
2021-10-14T07:57:00,campus,42.80
2021-10-14T07:58:00,campus,42.90
2021-10-14T07:59:00,campus,43.00
2021-10-14T08:00:00,campus,43.00
2021-10-14T08:01:00,campus,43.10
2021-10-14T08:02:00,campus,43.10
2021-10-14T08:03:00,campus,43.10
2021-10-14T08:04:00,campus,43.20
2021-10-14T08:05:00,campus,43.20
2021-10-14T08:06:00,campus,43.30
2021-10-14T08:07:00,campus,43.30
2021-10-14T08:08:00,campus,43.20
2021-10-14T08:09:00,campus,43.30
2021-10-14T08:10:00,campus,43.30
2021-10-14T08:11:00,campus,43.30
2021-10-14T08:12:00,campus,43.30
2021-10-14T08:13:00,campus,43.20
2021-10-14T08:14:00,campus,43.20
2021-10-14T08:15:00,campus,43.20
2021-10-14T08:16:00,campus,43.20
2021-10-14T08:17:00,campus,43.20
2021-10-14T08:18:00,campus,43.10
2021-10-14T08:19:00,campus,43.10
2021-10-14T08:20:00,campus,43.10
2021-10-14T08:21:00,campus,43.00
2021-10-14T08:22:00,campus,43.00
2021-10-14T08:23:00,campus,43.00
2021-10-14T08:24:00,campus,42.90
2021-10-14T08:25:00,campus,42.90
2021-10-14T08:26:00,campus,42.90
2021-10-14T08:27:00,campus,42.80
2021-10-14T08:28:00,campus,42.80
2021-10-14T08:29:00,campus,42.70
2021-10-14T08:30:00,campus,42.70
2021-10-14T08:31:00,campus,42.70
2021-10-14T08:32:00,campus,42.70
2021-10-14T08:33:00,campus,42.70
2021-10-14T08:34:00,campus,42.70
2021-10-14T08:35:00,campus,42.70
2021-10-14T08:36:00,campus,42.80
2021-10-14T08:37:00,campus,42.90
2021-10-14T08:38:00,campus,42.90
2021-10-14T08:39:00,campus,43.00
2021-10-14T08:40:00,campus,43.10
2021-10-14T08:41:00,campus,43.20
2021-10-14T08:42:00,campus,43.30
2021-10-14T08:43:00,campus,43.40
2021-10-14T08:44:00,campus,43.40
2021-10-14T08:45:00,campus,43.50
2021-10-14T08:46:00,campus,43.60
2021-10-14T08:47:00,campus,43.70
2021-10-14T08:48:00,campus,43.80
2021-10-14T08:49:00,campus,43.90
2021-10-14T08:50:00,campus,44.00
2021-10-14T08:51:00,campus,44.00
2021-10-14T08:52:00,campus,44.10
2021-10-14T08:53:00,campus,44.10
2021-10-14T08:54:00,campus,44.20
2021-10-14T08:55:00,campus,44.30
2021-10-14T08:56:00,campus,44.30
2021-10-14T08:57:00,campus,44.40
2021-10-14T08:58:00,campus,44.40
2021-10-14T08:59:00,campus,44.50
2021-10-14T09:00:00,campus,44.50
2021-10-14T09:01:00,campus,44.50
2021-10-14T09:02:00,campus,44.50
2021-10-14T09:03:00,campus,44.50
2021-10-14T09:04:00,campus,44.60
2021-10-14T09:05:00,campus,44.60
2021-10-14T09:06:00,campus,44.60
2021-10-14T09:07:00,campus,44.70
2021-10-14T09:08:00,campus,44.80
2021-10-14T09:09:00,campus,44.90
2021-10-14T09:10:00,campus,44.90
2021-10-14T09:11:00,campus,45.00
2021-10-14T09:12:00,campus,45.00
2021-10-14T09:13:00,campus,45.00
2021-10-14T09:14:00,campus,45.00
2021-10-14T09:15:00,campus,45.10
2021-10-14T09:16:00,campus,45.10
2021-10-14T09:17:00,campus,45.10
2021-10-14T09:18:00,campus,45.10
2021-10-14T09:19:00,campus,45.10
2021-10-14T09:20:00,campus,45.10
2021-10-14T09:21:00,campus,45.10
2021-10-14T09:22:00,campus,45.20
2021-10-14T09:23:00,campus,45.30
2021-10-14T09:24:00,campus,45.40
2021-10-14T09:25:00,campus,45.40
2021-10-14T09:26:00,campus,45.50
2021-10-14T09:27:00,campus,45.50
2021-10-14T09:28:00,campus,45.60
2021-10-14T09:29:00,campus,45.70
2021-10-14T09:30:00,campus,45.80
2021-10-14T09:31:00,campus,45.90
2021-10-14T09:32:00,campus,46.00
2021-10-14T09:33:00,campus,46.10
2021-10-14T09:34:00,campus,46.20
2021-10-14T09:35:00,campus,46.20
2021-10-14T09:36:00,campus,46.20
2021-10-14T09:37:00,campus,46.20
2021-10-14T09:38:00,campus,46.20
2021-10-14T09:39:00,campus,46.20
2021-10-14T09:40:00,campus,46.10
2021-10-14T09:41:00,campus,46.20
2021-10-14T09:42:00,campus,46.20
2021-10-14T09:43:00,campus,46.20
2021-10-14T09:44:00,campus,46.20
2021-10-14T09:45:00,campus,46.30
2021-10-14T09:46:00,campus,46.30
2021-10-14T09:47:00,campus,46.40
2021-10-14T09:48:00,campus,46.50
2021-10-14T09:49:00,campus,46.50
2021-10-14T09:50:00,campus,46.60
2021-10-14T09:51:00,campus,46.70
2021-10-14T09:52:00,campus,46.70
2021-10-14T09:53:00,campus,46.70
2021-10-14T09:54:00,campus,46.70
2021-10-14T09:55:00,campus,46.70
2021-10-14T09:56:00,campus,46.70
2021-10-14T09:57:00,campus,46.80
2021-10-14T09:58:00,campus,46.80
2021-10-14T09:59:00,campus,46.80
2021-10-14T10:00:00,campus,46.80
2021-10-14T10:01:00,campus,46.90
2021-10-14T10:02:00,campus,46.90
2021-10-14T10:03:00,campus,47.10
2021-10-14T10:04:00,campus,47.20
2021-10-14T10:05:00,campus,47.30
2021-10-14T10:06:00,campus,47.30
2021-10-14T10:07:00,campus,47.40
2021-10-14T10:08:00,campus,47.60
2021-10-14T10:09:00,campus,47.70
2021-10-14T10:10:00,campus,47.70
2021-10-14T10:11:00,campus,47.80
2021-10-14T10:12:00,campus,47.80
2021-10-14T10:13:00,campus,47.80
2021-10-14T10:14:00,campus,47.90
2021-10-14T10:15:00,campus,47.90
2021-10-14T10:16:00,campus,47.90
2021-10-14T10:17:00,campus,47.90
2021-10-14T10:18:00,campus,48.00
2021-10-14T10:19:00,campus,48.00
2021-10-14T10:20:00,campus,48.10
2021-10-14T10:21:00,campus,48.10
2021-10-14T10:22:00,campus,48.20
2021-10-14T10:23:00,campus,48.30
2021-10-14T10:24:00,campus,48.40
2021-10-14T10:25:00,campus,48.50
2021-10-14T10:26:00,campus,48.50
2021-10-14T10:27:00,campus,48.60
2021-10-14T10:28:00,campus,48.60
2021-10-14T10:29:00,campus,48.70
2021-10-14T10:30:00,campus,48.70
2021-10-14T10:31:00,campus,48.70
2021-10-14T10:32:00,campus,48.70
2021-10-14T10:33:00,campus,48.60
2021-10-14T10:34:00,campus,48.60
2021-10-14T10:35:00,campus,48.60
2021-10-14T10:36:00,campus,48.60
2021-10-14T10:37:00,campus,48.50
2021-10-14T10:38:00,campus,48.50
2021-10-14T10:39:00,campus,48.50
2021-10-14T10:40:00,campus,48.50
2021-10-14T10:41:00,campus,48.60
2021-10-14T10:42:00,campus,48.60
2021-10-14T10:43:00,campus,48.60
2021-10-14T10:44:00,campus,48.70
2021-10-14T10:45:00,campus,48.80
2021-10-14T10:46:00,campus,48.90
2021-10-14T10:47:00,campus,48.90
2021-10-14T10:48:00,campus,49.00
2021-10-14T10:49:00,campus,49.00
2021-10-14T10:50:00,campus,49.00
2021-10-14T10:51:00,campus,49.10
2021-10-14T10:52:00,campus,49.10
2021-10-14T10:53:00,campus,49.00
2021-10-14T10:54:00,campus,49.10
2021-10-14T10:55:00,campus,49.00
2021-10-14T10:56:00,campus,49.10
2021-10-14T10:57:00,campus,49.10
2021-10-14T10:58:00,campus,49.10
2021-10-14T10:59:00,campus,49.20
2021-10-14T11:00:00,campus,49.30
2021-10-14T11:01:00,campus,49.30
2021-10-14T11:02:00,campus,49.40
2021-10-14T11:03:00,campus,49.50
2021-10-14T11:04:00,campus,49.60
2021-10-14T11:05:00,campus,49.70
2021-10-14T11:06:00,campus,49.80
2021-10-14T11:07:00,campus,49.80
2021-10-14T11:08:00,campus,49.90
2021-10-14T11:09:00,campus,50.00
2021-10-14T11:10:00,campus,50.10
2021-10-14T11:11:00,campus,50.20
2021-10-14T11:12:00,campus,50.30
2021-10-14T11:13:00,campus,50.30
2021-10-14T11:14:00,campus,50.40
2021-10-14T11:15:00,campus,50.40
2021-10-14T11:16:00,campus,50.40
2021-10-14T11:17:00,campus,50.50
2021-10-14T11:18:00,campus,50.50
2021-10-14T11:19:00,campus,50.60
2021-10-14T11:20:00,campus,50.70
2021-10-14T11:21:00,campus,50.80
2021-10-14T11:22:00,campus,50.80
2021-10-14T11:23:00,campus,51.00
2021-10-14T11:24:00,campus,51.00
2021-10-14T11:25:00,campus,51.10
2021-10-14T11:26:00,campus,51.10
2021-10-14T11:27:00,campus,51.20
2021-10-14T11:28:00,campus,51.30
2021-10-14T11:29:00,campus,51.30
2021-10-14T11:30:00,campus,51.40
2021-10-14T11:31:00,campus,51.40
2021-10-14T11:32:00,campus,51.50
2021-10-14T11:33:00,campus,51.50
2021-10-14T11:34:00,campus,51.50
2021-10-14T11:35:00,campus,51.50
2021-10-14T11:36:00,campus,51.60
2021-10-14T11:37:00,campus,51.60
2021-10-14T11:38:00,campus,51.60
2021-10-14T11:39:00,campus,51.60
2021-10-14T11:40:00,campus,51.60
2021-10-14T11:41:00,campus,51.60
2021-10-14T11:42:00,campus,51.60
2021-10-14T11:43:00,campus,51.60
2021-10-14T11:44:00,campus,51.60
2021-10-14T11:45:00,campus,51.60
2021-10-14T11:46:00,campus,51.70
2021-10-14T11:47:00,campus,51.70
2021-10-14T11:48:00,campus,51.70
2021-10-14T11:49:00,campus,51.80
2021-10-14T11:50:00,campus,51.80
2021-10-14T11:51:00,campus,51.80
2021-10-14T11:52:00,campus,51.90
2021-10-14T11:53:00,campus,51.80
2021-10-14T11:54:00,campus,51.90
2021-10-14T11:55:00,campus,52.00
2021-10-14T11:56:00,campus,52.00
2021-10-14T11:57:00,campus,52.00
2021-10-14T11:58:00,campus,52.10
2021-10-14T11:59:00,campus,52.10
2021-10-14T12:00:00,campus,52.10
2021-10-14T12:01:00,campus,52.10
2021-10-14T12:02:00,campus,52.00
2021-10-14T12:03:00,campus,52.10
2021-10-14T12:04:00,campus,52.20
2021-10-14T12:05:00,campus,52.20